[[{"header":{"parameterUnit":"m.s-1","parameterCategory":1,"la1":30.2991,"la2":30.254,"lo1":-89.0895,"lo2":-89.0444,"dy":0.0017,"dx":0.0017,"nx":28,"ny":28,"refTime":"2025-11-14T03:00:00:Z","depth":0,"parameterNumber":2,"parameterNumberName":"U-component_of_WINDS"},"data":[0,0,0,0,0,0,0,0,0,0,0,0,0,0,0,0,0,0,0,0,0,0,0,0,0,0,0,0,0,0,0,0,0,0,0,0,0,0,0,0,0,0,0,0,0,0,0,0,0,0,0,0,0,0,0,0,0,0,-0.1422,-0.1421,0,-0.1413,-0.1413,-0.1413,-0.139,-0.139,-0.139,-0.1389,-0.1381,-0.1382,-0.1382,0,0,0,0,0,0,0,0,0,0,0,0,0,-0.1419,-0.1419,-0.1422,-0.1421,-0.1421,-0.1413,-0.1413,-0.1413,-0.1391,-0.139,-0.1389,-0.1389,-0.1381,-0.1382,-0.1382,0,0,0,0,0,0,0,0,0,0,0,0,0,-0.1416,-0.1419,-0.1422,-0.1409,-0.1408,-0.1413,-0.1413,-0.1413,-0.1391,-0.139,-0.1389,-0.1389,-0.1381,-0.1382,-0.1382,-0.1399,0,0,-0.1383,-0.1383,0,0,0,0,0,0,0,0,-0.1416,-0.1416,-0.1411,-0.141,-0.1409,-0.1402,-0.1409,-0.1408,-0.1391,-0.1397,-0.1389,-0.1388,-0.1389,-0.1389,-0.1389,-0.1398,-0.1398,-0.1383,-0.1383,-0.1383,-0.1384,0,0,0,0,0,0,0,-0.1417,-0.1417,-0.1418,-0.1411,-0.141,-0.1404,-0.1403,-0.1409,-0.1397,-0.1397,-0.1395,-0.1394,-0.1388,-0.1388,-0.1388,-0.1398,-0.1383,-0.1383,-0.1384,-0.1384,-0.1421,-0.1421,0,0,0,0,0,0,-0.1419,-0.1417,-0.1419,-0.1418,-0.1411,-0.1405,-0.1404,-0.1405,-0.1397,-0.1395,-0.1395,-0.1393,-0.1388,-0.1388,-0.1388,-0.1407,-0.1383,-0.1384,-0.1384,-0.142,-0.1421,-0.1422,0,0,0,0,0,0,-0.1419,-0.1419,-0.1419,-0.1417,-0.1417,-0.1406,-0.1407,-0.1405,-0.1405,-0.1396,-0.1394,-0.1397,-0.1387,-0.1387,-0.1396,-0.1406,-0.1384,-0.1384,-0.1419,-0.142,-0.1421,-0.1445,0,0,0,0,0,0,-0.1419,-0.1419,-0.1425,-0.1417,-0.1417,-0.1427,-0.1408,-0.1406,-0.1406,-0.1404,-0.1397,-0.1396,-0.1387,-0.1396,-0.1396,-0.1406,-0.1385,-0.1418,-0.1419,-0.1421,-0.1443,-0.1446,-0.1449,0,0,0,0,0,-0.1419,-0.1432,-0.1426,-0.1426,-0.1424,-0.1428,-0.1427,-0.1417,-0.1407,-0.1413,-0.1407,-0.1396,-0.1405,-0.1397,-0.1397,-0.1407,-0.1417,-0.1419,-0.1421,-0.1441,-0.1446,-0.1449,0,0,0,0,0,0,-0.1442,-0.1431,-0.1423,-0.1435,-0.1432,-0.1424,-0.1431,-0.1422,-0.1422,-0.142,-0.1407,-0.1406,-0.1416,-0.1413,-0.1404,-0.1423,-0.1409,-0.1411,-0.1425,-0.1429,-0.1432,-0.1432,-0.1385,0,0,0,0,0,-0.1448,-0.1452,-0.1442,-0.1454,-0.1453,-0.1442,-0.1443,-0.1435,-0.1432,-0.1431,-0.1425,-0.1423,-0.1425,-0.1427,-0.1428,-0.1442,-0.1441,-0.145,-0.1453,-0.1456,-0.1457,-0.1464,-0.1468,-0.1427,-0.1427,-0.1427,0,0,-0.1462,-0.1456,-0.1459,-0.1458,-0.1455,-0.1459,-0.1441,-0.1446,-0.1449,-0.1432,-0.1439,-0.1435,-0.1432,-0.1443,-0.1448,-0.144,-0.1468,-0.1458,-0.146,-0.146,-0.1466,-0.147,-0.1474,-0.1428,-0.1428,-0.1428,0,0,-0.1488,-0.1485,-0.1493,-0.1491,-0.1486,-0.1479,-0.1481,-0.1474,-0.147,-0.1478,-0.1465,-0.1468,-0.1472,-0.147,-0.147,-0.1495,-0.1485,-0.1496,-0.1513,-0.152,-0.1523,-0.1526,-0.1534,-0.1538,-0.1498,-0.1498,-0.1498,0,-0.1506,-0.1511,-0.1499,-0.1505,-0.1504,-0.1489,-0.1497,-0.1495,-0.1492,-0.1492,-0.1484,-0.1489,-0.1485,-0.1496,-0.1502,-0.1502,-0.1504,-0.1497,-0.1523,-0.1526,-0.1529,-0.1537,-0.154,-0.1499,-0.1499,-0.1499,-0.1499,0,-0.1532,-0.1536,-0.1543,-0.154,-0.1541,-0.1548,-0.1537,-0.1539,-0.1532,-0.1525,-0.1533,-0.1528,-0.1528,-0.153,-0.1523,-0.154,-0.1535,-0.1526,-0.1511,-0.1534,-0.1541,-0.1544,-0.1501,-0.1501,-0.15,-0.15,0,0,-0.1572,-0.1562,-0.1565,-0.1563,-0.1557,-0.156,-0.1567,-0.1566,-0.1568,-0.1567,-0.1572,-0.1576,-0.1566,-0.1566,-0.1558,-0.1564,-0.1584,-0.1553,-0.1553,-0.1559,-0.1602,-0.1608,-0.1612,-0.1577,-0.1578,-0.1578,-0.1602,0,-0.1597,-0.1607,-0.1597,-0.1609,-0.1612,-0.1597,-0.1603,-0.16,-0.1595,-0.1597,-0.1591,-0.1594,-0.1582,-0.1581,-0.1586,-0.158,-0.1592,-0.1579,-0.1582,-0.1582,-0.1583,-0.1616,-0.1623,-0.1646,-0.1605,-0.1605,-0.1605,0,-0.1626,-0.1625,-0.1638,-0.1631,-0.1632,-0.1637,-0.1636,-0.1638,-0.1635,-0.163,-0.163,-0.162,-0.1626,-0.1613,-0.1621,-0.1612,-0.1612,-0.161,-0.161,-0.161,-0.1595,-0.1616,-0.1653,-0.1656,-0.161,-0.161,-0.1609,0,-0.1654,-0.1656,-0.1663,-0.1662,-0.1654,-0.1658,-0.1655,-0.1651,-0.1651,-0.1651,-0.1651,-0.1651,-0.1651,-0.1651,-0.1642,-0.1633,-0.1651,-0.1637,-0.1648,-0.1648,-0.1651,-0.1651,-0.1688,-0.1653,-0.1653,-0.1653,-0.1653,0,-0.1682,-0.169,-0.1676,-0.168,-0.1689,-0.1677,-0.1686,-0.1682,-0.1678,-0.1681,-0.1669,-0.1673,-0.166,-0.1663,-0.1656,-0.1663,-0.1664,-0.166,-0.1658,-0.1661,-0.1661,-0.1661,-0.1659,-0.1654,-0.1654,-0.1654,-0.1653,0,-0.1713,-0.1704,-0.1712,-0.1703,-0.1702,-0.1708,-0.1701,-0.1705,-0.1699,-0.1704,-0.1704,-0.1695,-0.1697,-0.1688,-0.1689,-0.1684,-0.1695,-0.1691,-0.1696,-0.1694,-0.1705,-0.1704,-0.1742,-0.1747,-0.171,-0.171,-0.171,0,-0.1731,-0.1737,-0.173,-0.1731,-0.1728,-0.1731,-0.1731,-0.172,-0.1721,-0.1717,-0.1722,-0.1723,-0.1723,-0.1727,-0.1721,-0.1721,-0.1716,-0.173,-0.1716,-0.1719,-0.1716,-0.1715,-0.1716,-0.1732,-0.1733,-0.1733,-0.1734,0,-0.1764,-0.1759,-0.176,-0.1759,-0.176,-0.1759,-0.1757,-0.1759,-0.1747,-0.1749,-0.175,-0.1751,-0.1751,-0.1753,-0.1752,-0.1749,-0.1739,-0.1738,-0.174,-0.1743,-0.1745,-0.1743,-0.1703,-0.1737,-0.1737,-0.1736,-0.1736,-0.1736,-0.1789,-0.1793,-0.1788,-0.179,-0.1787,-0.1786,-0.1789,-0.1783,-0.1784,-0.1784,-0.1777,-0.178,-0.1777,-0.1774,-0.1772,-0.1775,-0.1768,-0.1772,-0.1773,-0.1774,-0.1775,-0.1746,-0.1775,-0.1775,-0.1775,-0.1774,-0.1774,0,-0.182,-0.1817,-0.1818,-0.1815,-0.1816,-0.1807,-0.1805,-0.1806,-0.1809,-0.1806,-0.1807,-0.1809,-0.181,-0.1803,-0.1804,-0.1807,-0.1802,-0.1807,-0.1806,-0.1806,-0.1781,-0.1779,-0.1811,-0.1811,-0.1811,-0.1811,-0.1811,-0.1811,-0.1837,-0.1843,-0.1838,-0.1843,-0.1839,-0.1842,-0.1841,-0.184,-0.1837,-0.184,-0.1841,-0.1837,-0.1832,-0.1832,-0.1833,-0.1831,-0.1831,-0.1838,-0.1834,-0.1811,-0.1808,-0.1804,-0.1802,-0.1838,-0.1838,-0.1859,-0.1859,-0.1859]},{"header":{"parameterUnit":"m.s-1","parameterCategory":1,"la1":30.2991,"la2":30.254,"lo1":-89.0895,"lo2":-89.0444,"dy":0.0017,"dx":0.0017,"nx":28,"ny":28,"refTime":"2025-11-14T03:00:00:Z","depth":0,"parameterNumber":3,"parameterNumberName":"V-component_of_WINDS"},"data":[0,0,0,0,0,0,0,0,0,0,0,0,0,0,0,0,0,0,0,0,0,0,0,0,0,0,0,0,0,0,0,0,0,0,0,0,0,0,0,0,0,0,0,0,0,0,0,0,0,0,0,0,0,0,0,0,0,0,-0.0097,-0.0097,0,-0.0113,-0.0113,-0.0114,-0.0117,-0.0117,-0.0117,-0.0116,-0.0135,-0.0135,-0.0136,0,0,0,0,0,0,0,0,0,0,0,0,0,-0.007,-0.0071,-0.0097,-0.0097,-0.0097,-0.0113,-0.0113,-0.0114,-0.0117,-0.0117,-0.0116,-0.0116,-0.0134,-0.0135,-0.0136,0,0,0,0,0,0,0,0,0,0,0,0,0,-0.0084,-0.0071,-0.0097,-0.0101,-0.0101,-0.0113,-0.0113,-0.0114,-0.0117,-0.0117,-0.0116,-0.0116,-0.0134,-0.0135,-0.0136,-0.0145,0,0,-0.0139,-0.0139,0,0,0,0,0,0,0,0,-0.0083,-0.0085,-0.01,-0.0101,-0.0101,-0.0113,-0.0111,-0.0124,-0.0117,-0.0111,-0.0116,-0.0116,-0.0128,-0.0129,-0.0133,-0.0146,-0.0147,-0.0139,-0.0139,-0.014,-0.014,0,0,0,0,0,0,0,-0.0082,-0.0084,-0.0103,-0.01,-0.0101,-0.0102,-0.0104,-0.0113,-0.012,-0.0111,-0.0112,-0.0114,-0.0128,-0.0132,-0.0133,-0.0147,-0.0139,-0.014,-0.014,-0.014,-0.017,-0.017,0,0,0,0,0,0,-0.008,-0.0083,-0.0103,-0.0104,-0.0091,-0.0103,-0.0105,-0.0109,-0.012,-0.0122,-0.0114,-0.0114,-0.013,-0.0132,-0.0134,-0.0145,-0.014,-0.0141,-0.0141,-0.017,-0.017,-0.017,0,0,0,0,0,0,-0.0079,-0.0082,-0.0102,-0.0094,-0.0096,-0.0103,-0.0109,-0.011,-0.0113,-0.0122,-0.0123,-0.0116,-0.013,-0.0132,-0.0142,-0.0146,-0.0141,-0.0142,-0.0169,-0.017,-0.017,-0.0169,0,0,0,0,0,0,-0.0079,-0.0082,-0.0085,-0.0094,-0.0097,-0.011,-0.0109,-0.011,-0.0115,-0.0115,-0.0124,-0.0126,-0.013,-0.0141,-0.0143,-0.0147,-0.0142,-0.0169,-0.017,-0.017,-0.0169,-0.017,-0.017,0,0,0,0,0,-0.0078,-0.0084,-0.0085,-0.0087,-0.0101,-0.011,-0.0112,-0.0117,-0.0115,-0.0119,-0.0124,-0.0126,-0.0145,-0.0142,-0.0145,-0.0149,-0.0169,-0.0169,-0.017,-0.0169,-0.0169,-0.017,0,0,0,0,0,0,-0.0076,-0.0086,-0.0086,-0.0096,-0.0102,-0.0111,-0.0116,-0.0117,-0.0124,-0.0124,-0.013,-0.0132,-0.0142,-0.0146,-0.0142,-0.0159,-0.0157,-0.0158,-0.0155,-0.0156,-0.0157,-0.0155,-0.0143,0,0,0,0,0,-0.0077,-0.0084,-0.0091,-0.0099,-0.0102,-0.0108,-0.0113,-0.0115,-0.0122,-0.0125,-0.0131,-0.0139,-0.0146,-0.0152,-0.0159,-0.017,-0.0172,-0.0174,-0.0175,-0.0175,-0.0176,-0.0182,-0.0183,-0.0172,-0.0172,-0.0172,0,0,-0.0079,-0.0085,-0.0089,-0.0099,-0.0104,-0.0111,-0.0111,-0.0118,-0.0123,-0.0127,-0.0136,-0.0141,-0.015,-0.016,-0.0165,-0.0164,-0.0179,-0.0176,-0.0176,-0.0177,-0.0183,-0.0184,-0.0184,-0.0172,-0.0172,-0.0172,0,0,-0.0086,-0.0091,-0.0097,-0.0103,-0.011,-0.0114,-0.0116,-0.0125,-0.0128,-0.0137,-0.014,-0.0147,-0.016,-0.0166,-0.0171,-0.018,-0.0181,-0.0182,-0.0185,-0.0191,-0.0191,-0.0192,-0.0195,-0.0197,-0.0183,-0.0183,-0.0183,0,-0.0087,-0.0097,-0.0101,-0.0108,-0.0113,-0.0115,-0.0123,-0.0128,-0.0138,-0.0141,-0.014,-0.0157,-0.0163,-0.0175,-0.0177,-0.0181,-0.0183,-0.0181,-0.0191,-0.0192,-0.0193,-0.0196,-0.0197,-0.0183,-0.0183,-0.0183,-0.0183,0,-0.0098,-0.0105,-0.011,-0.0119,-0.0124,-0.0132,-0.0137,-0.0142,-0.0144,-0.0149,-0.0159,-0.0166,-0.0175,-0.0178,-0.0181,-0.019,-0.0189,-0.019,-0.0188,-0.0193,-0.0197,-0.0198,-0.0183,-0.0183,-0.0183,-0.0183,0,0,-0.0104,-0.0115,-0.0117,-0.0121,-0.013,-0.0136,-0.0143,-0.0152,-0.0156,-0.0163,-0.017,-0.0181,-0.0181,-0.0187,-0.019,-0.0195,-0.0202,-0.0195,-0.0195,-0.0196,-0.0213,-0.0213,-0.0214,-0.0203,-0.0203,-0.0203,-0.0212,0,-0.0112,-0.0125,-0.0129,-0.014,-0.0146,-0.0149,-0.0156,-0.0162,-0.0166,-0.0173,-0.0178,-0.0186,-0.0186,-0.0189,-0.0194,-0.02,-0.0205,-0.0199,-0.021,-0.021,-0.0207,-0.0216,-0.0215,-0.0223,-0.0213,-0.0214,-0.0214,0,-0.0123,-0.0129,-0.0141,-0.0149,-0.0152,-0.0157,-0.0166,-0.0172,-0.0179,-0.0182,-0.0188,-0.0191,-0.0199,-0.0197,-0.0209,-0.0205,-0.021,-0.0213,-0.0214,-0.0215,-0.0212,-0.0217,-0.0226,-0.0227,-0.0216,-0.0216,-0.0215,0,-0.0126,-0.0138,-0.0146,-0.015,-0.0159,-0.0163,-0.0167,-0.0175,-0.018,-0.0187,-0.019,-0.0199,-0.0203,-0.021,-0.0215,-0.0213,-0.0227,-0.0225,-0.023,-0.023,-0.0232,-0.0232,-0.0242,-0.0235,-0.0235,-0.0235,-0.0235,0,-0.0134,-0.0141,-0.0148,-0.0153,-0.0161,-0.0165,-0.0173,-0.0178,-0.0184,-0.0191,-0.0194,-0.02,-0.0207,-0.0214,-0.0218,-0.0227,-0.023,-0.0232,-0.0233,-0.0232,-0.0232,-0.0235,-0.0235,-0.0236,-0.0236,-0.0235,-0.0235,0,-0.0139,-0.0144,-0.0153,-0.0161,-0.0163,-0.0169,-0.0176,-0.0182,-0.0186,-0.0194,-0.0196,-0.0203,-0.0212,-0.0218,-0.0229,-0.0232,-0.0242,-0.0243,-0.0239,-0.024,-0.0244,-0.0244,-0.0257,-0.0259,-0.025,-0.025,-0.0251,0,-0.0144,-0.0149,-0.0158,-0.0162,-0.0166,-0.0173,-0.0178,-0.0183,-0.0188,-0.0197,-0.0201,-0.021,-0.0217,-0.0231,-0.0237,-0.0246,-0.0247,-0.0251,-0.0248,-0.0247,-0.0247,-0.0247,-0.0247,-0.0251,-0.0251,-0.0252,-0.0252,0,-0.0152,-0.0154,-0.016,-0.0168,-0.0173,-0.018,-0.0186,-0.0189,-0.0196,-0.0201,-0.021,-0.0215,-0.0226,-0.0235,-0.0244,-0.0249,-0.0252,-0.0252,-0.0254,-0.0252,-0.025,-0.0251,-0.024,-0.0252,-0.0252,-0.0252,-0.0252,-0.0252,-0.0157,-0.0162,-0.0168,-0.0176,-0.0181,-0.0187,-0.0192,-0.0197,-0.0204,-0.0213,-0.0216,-0.0225,-0.0232,-0.0245,-0.025,-0.0257,-0.0257,-0.0259,-0.026,-0.026,-0.026,-0.0249,-0.0259,-0.0259,-0.0259,-0.0259,-0.0259,0,-0.0165,-0.0169,-0.0176,-0.0184,-0.019,-0.0191,-0.0198,-0.0203,-0.0211,-0.0218,-0.0225,-0.0234,-0.0243,-0.025,-0.0259,-0.0264,-0.0265,-0.0266,-0.0266,-0.0267,-0.026,-0.0258,-0.0265,-0.0265,-0.0265,-0.0265,-0.0265,-0.0265,-0.017,-0.0178,-0.0181,-0.0192,-0.0197,-0.0205,-0.0209,-0.0214,-0.022,-0.023,-0.0237,-0.0242,-0.0249,-0.0258,-0.0266,-0.0268,-0.0271,-0.0272,-0.0274,-0.0268,-0.0267,-0.0267,-0.0264,-0.0273,-0.0273,-0.028,-0.028,-0.028]}]]